Location: Larkspur
(54.4391°N, 113.7691°W)
Time: 13:53:18
(UTC+00:00)

METEOR M2 - Pass Details

Date: 12 December 2023
Orbit: 819 x 826 km, 98.4° (Epoch: 02 March)

Event Time Altitude Azimuth Distance (km) Brightness Sun altitude
Rises 14:22:01 0° 13° (NNE) 3,374 ? -11.3°
Reaches altitude 10° 14:24:25 10° 9° (N) 2,435 ? -11.0°
Maximum altitude 14:29:39 54° 294° (WNW) 999 ? -10.3°
Drops below altitude 10° 14:34:50 10° 218° (SW) 2,415 ? -9.6°
Sets 14:37:13 0° 214° (SW) 3,343 ? -9.3°
